{"data":{"norad_id":43226,"epoch":"2026-05-25T03:26:38.623776Z","epoch_age_seconds":52889,"freshness":"FRESH","line1":"1 43226U 18022A   26145.14350259 -.00000184  00000+0  00000+0 0  9999","line2":"2 43226   0.8816  86.0315 0000560 338.9965 139.8782  1.00271818 30198","mean_motion":1.00271818,"eccentricity":5.6e-5,"inclination_deg":0.8816,"raan_deg":86.0315,"arg_perigee_deg":338.9965,"mean_anomaly_deg":139.8782,"bstar":0,"rev_number":3019,"period_min":1436.0964314021,"perigee_km":35784.224485624,"apogee_km":35788.946934567,"semimajor_km":42164.722710095,"source":"CELESTRAK","updated_at":"2026-05-25T13:38:14.051268Z"}}